[[{"header":{"parameterUnit":"m.s-1","parameterCategory":1,"la1":30.2991,"la2":30.254,"lo1":-89.0895,"lo2":-89.0444,"dy":0.0017,"dx":0.0017,"nx":28,"ny":28,"refTime":"2023-07-30T21:00:00:Z","depth":0,"parameterNumber":2,"parameterNumberName":"U-component_of_WINDS"},"data":[0,0,0,0,0,0,0,0,0,0,0,0,0,0,0,0,0,0,0,0,0,0,0,0,0,0,0,0,0,0,0,0,0,0,0,0,0,0,0,0,0,0,0,0,0,0,0,0,0,0,0,0,0,0,0,0,0,0,-0.5916,-0.5916,0,-0.5852,-0.5851,-0.5851,-0.5844,-0.5844,-0.5845,-0.5845,-0.5779,-0.5777,-0.5774,0,0,0,0,0,0,0,0,0,0,0,0,0,-0.6034,-0.6032,-0.5916,-0.5916,-0.5915,-0.5852,-0.5851,-0.585,-0.5843,-0.5844,-0.5845,-0.5846,-0.578,-0.5777,-0.5774,0,0,0,0,0,0,0,0,0,0,0,0,0,-0.5978,-0.6032,-0.5916,-0.5904,-0.5902,-0.5852,-0.5851,-0.585,-0.5843,-0.5844,-0.5845,-0.5846,-0.5781,-0.5777,-0.5774,-0.5732,0,0,-0.5763,-0.5761,0,0,0,0,0,0,0,0,-0.5981,-0.5974,-0.5906,-0.5905,-0.5902,-0.5857,-0.5869,-0.5811,-0.5843,-0.5866,-0.5845,-0.5847,-0.5804,-0.5799,-0.5784,-0.5729,-0.5726,-0.5763,-0.576,-0.5759,-0.5758,0,0,0,0,0,0,0,-0.5985,-0.5976,-0.5891,-0.5905,-0.5903,-0.5902,-0.5895,-0.5858,-0.583,-0.5864,-0.5863,-0.5856,-0.5803,-0.5788,-0.5783,-0.5725,-0.5763,-0.576,-0.5757,-0.5756,-0.5635,-0.5634,0,0,0,0,0,0,-0.5991,-0.598,-0.5893,-0.5889,-0.5945,-0.5899,-0.5891,-0.587,-0.583,-0.5825,-0.5855,-0.5855,-0.5794,-0.5787,-0.578,-0.573,-0.5759,-0.5756,-0.5754,-0.5636,-0.5635,-0.5634,0,0,0,0,0,0,-0.5994,-0.5984,-0.5896,-0.5934,-0.5923,-0.5896,-0.5873,-0.5869,-0.5853,-0.5824,-0.5819,-0.5844,-0.5794,-0.5786,-0.5745,-0.5728,-0.5754,-0.5751,-0.5637,-0.5636,-0.5634,-0.5628,0,0,0,0,0,0,-0.5997,-0.5985,-0.5968,-0.5934,-0.5921,-0.586,-0.5872,-0.5867,-0.5847,-0.5848,-0.5812,-0.5808,-0.5794,-0.575,-0.5741,-0.5723,-0.5748,-0.5639,-0.5637,-0.5635,-0.563,-0.5626,-0.5624,0,0,0,0,0,-0.6002,-0.5968,-0.5967,-0.5957,-0.5899,-0.5859,-0.5852,-0.5837,-0.5846,-0.5829,-0.5811,-0.5809,-0.5731,-0.5746,-0.5736,-0.5716,-0.564,-0.5637,-0.5635,-0.5631,-0.5627,-0.5624,0,0,0,0,0,0,-0.6,-0.5963,-0.5962,-0.5916,-0.5891,-0.5858,-0.5836,-0.5833,-0.5805,-0.5806,-0.5789,-0.5782,-0.5742,-0.5725,-0.5742,-0.5675,-0.5686,-0.5682,-0.5687,-0.5683,-0.568,-0.5684,-0.5745,0,0,0,0,0,-0.5994,-0.5965,-0.5935,-0.5897,-0.5885,-0.5863,-0.5845,-0.5836,-0.5809,-0.5799,-0.5777,-0.5751,-0.5721,-0.5701,-0.5672,-0.5628,-0.5621,-0.561,-0.5607,-0.5605,-0.5601,-0.5578,-0.5573,-0.5626,-0.5626,-0.5626,0,0,-0.5982,-0.5959,-0.5941,-0.5897,-0.5876,-0.5846,-0.5854,-0.5821,-0.5799,-0.5794,-0.5754,-0.5738,-0.5708,-0.5666,-0.5646,-0.5651,-0.5585,-0.5602,-0.56,-0.5597,-0.5575,-0.557,-0.5565,-0.5624,-0.5624,-0.5625,0,0,-0.5945,-0.5924,-0.5891,-0.5871,-0.584,-0.5827,-0.5819,-0.5787,-0.5776,-0.5737,-0.5732,-0.5706,-0.5655,-0.5634,-0.5617,-0.5575,-0.5573,-0.5566,-0.555,-0.5528,-0.5524,-0.552,-0.5505,-0.55,-0.5563,-0.5563,-0.5563,0,-0.5933,-0.5888,-0.5875,-0.5843,-0.5824,-0.5819,-0.5786,-0.5768,-0.5729,-0.5716,-0.5723,-0.5659,-0.5639,-0.5592,-0.5583,-0.5569,-0.556,-0.5569,-0.5525,-0.5522,-0.5518,-0.5504,-0.5498,-0.5562,-0.5562,-0.5562,-0.5562,0,-0.5875,-0.5844,-0.5822,-0.5785,-0.5764,-0.5732,-0.5715,-0.5696,-0.569,-0.5676,-0.5637,-0.5613,-0.5579,-0.5568,-0.5561,-0.5521,-0.5525,-0.5529,-0.5539,-0.5512,-0.5499,-0.5493,-0.5561,-0.5561,-0.5562,-0.5562,0,0,-0.5832,-0.5791,-0.5783,-0.5767,-0.5734,-0.571,-0.5679,-0.5647,-0.5631,-0.5606,-0.5579,-0.5538,-0.5541,-0.5522,-0.5514,-0.5494,-0.5464,-0.55,-0.55,-0.5494,-0.5419,-0.5416,-0.541,-0.5463,-0.5462,-0.5461,-0.5422,0,-0.579,-0.5734,-0.5723,-0.5674,-0.5646,-0.5643,-0.5616,-0.5593,-0.558,-0.5555,-0.5541,-0.5511,-0.5519,-0.5507,-0.5488,-0.5472,-0.5449,-0.5475,-0.5439,-0.5437,-0.5445,-0.5403,-0.5399,-0.5362,-0.5417,-0.5416,-0.5415,0,-0.5733,-0.5707,-0.5656,-0.5629,-0.5617,-0.5593,-0.5564,-0.5539,-0.5515,-0.5507,-0.5487,-0.5482,-0.545,-0.5464,-0.5421,-0.5439,-0.5425,-0.5415,-0.5413,-0.5408,-0.5423,-0.5396,-0.535,-0.5345,-0.5407,-0.5407,-0.5408,0,-0.5706,-0.5658,-0.5622,-0.5609,-0.5577,-0.556,-0.5546,-0.5523,-0.5505,-0.548,-0.5469,-0.544,-0.5425,-0.5404,-0.5391,-0.5402,-0.535,-0.5362,-0.5342,-0.5343,-0.533,-0.533,-0.528,-0.5322,-0.5322,-0.5322,-0.5322,0,-0.5659,-0.5628,-0.561,-0.5587,-0.5553,-0.5542,-0.5508,-0.5494,-0.5474,-0.545,-0.5446,-0.5423,-0.5409,-0.5384,-0.5375,-0.5341,-0.5334,-0.5327,-0.5325,-0.5327,-0.5328,-0.5316,-0.5318,-0.5321,-0.5321,-0.5321,-0.5322,0,-0.5622,-0.5609,-0.5569,-0.5543,-0.5536,-0.5511,-0.5489,-0.5468,-0.5457,-0.5426,-0.5418,-0.54,-0.5371,-0.5358,-0.5322,-0.5316,-0.5278,-0.5277,-0.5286,-0.5284,-0.5265,-0.5267,-0.5205,-0.5196,-0.5244,-0.5244,-0.5244,0,-0.5593,-0.5569,-0.5541,-0.5525,-0.551,-0.5484,-0.5466,-0.5456,-0.5437,-0.541,-0.5392,-0.5364,-0.534,-0.5295,-0.5278,-0.5252,-0.525,-0.523,-0.5246,-0.5249,-0.525,-0.5251,-0.5249,-0.5227,-0.5226,-0.5226,-0.5226,0,-0.5542,-0.5537,-0.5512,-0.5485,-0.5465,-0.5443,-0.5421,-0.5408,-0.5395,-0.5375,-0.5346,-0.5328,-0.5293,-0.5265,-0.5238,-0.5224,-0.5223,-0.5222,-0.5215,-0.5216,-0.5222,-0.5219,-0.5277,-0.5222,-0.5223,-0.5223,-0.5223,-0.5223,-0.5507,-0.5486,-0.5464,-0.5437,-0.542,-0.5401,-0.538,-0.5367,-0.5343,-0.5313,-0.5309,-0.5279,-0.5258,-0.5221,-0.5207,-0.5184,-0.5188,-0.5179,-0.5177,-0.5175,-0.5174,-0.5227,-0.5179,-0.5179,-0.5179,-0.5179,-0.5179,0,-0.5456,-0.5442,-0.5417,-0.5388,-0.5368,-0.537,-0.5347,-0.533,-0.5303,-0.5284,-0.5261,-0.5229,-0.5203,-0.5186,-0.516,-0.5144,-0.5143,-0.5138,-0.5138,-0.5135,-0.5171,-0.5179,-0.5139,-0.5139,-0.5139,-0.5139,-0.5139,-0.5139,-0.5426,-0.5392,-0.5385,-0.5343,-0.533,-0.53,-0.5287,-0.527,-0.5255,-0.5219,-0.5198,-0.5187,-0.5169,-0.5142,-0.5119,-0.5115,-0.5105,-0.5099,-0.5095,-0.5129,-0.5133,-0.5136,-0.5144,-0.5098,-0.5098,-0.5062,-0.5061,-0.5061]},{"header":{"parameterUnit":"m.s-1","parameterCategory":1,"la1":30.2991,"la2":30.254,"lo1":-89.0895,"lo2":-89.0444,"dy":0.0017,"dx":0.0017,"nx":28,"ny":28,"refTime":"2023-07-30T21:00:00:Z","depth":0,"parameterNumber":3,"parameterNumberName":"V-component_of_WINDS"},"data":[0,0,0,0,0,0,0,0,0,0,0,0,0,0,0,0,0,0,0,0,0,0,0,0,0,0,0,0,0,0,0,0,0,0,0,0,0,0,0,0,0,0,0,0,0,0,0,0,0,0,0,0,0,0,0,0,0,0,1.4647,1.4648,0,1.4719,1.472,1.472,1.477,1.477,1.4771,1.4771,1.4843,1.4844,1.4846,0,0,0,0,0,0,0,0,0,0,0,0,0,1.4551,1.4552,1.4647,1.4648,1.4649,1.4719,1.472,1.4721,1.477,1.477,1.4771,1.4771,1.4842,1.4844,1.4846,0,0,0,0,0,0,0,0,0,0,0,0,0,1.4604,1.4553,1.4647,1.4682,1.4686,1.4718,1.472,1.4721,1.477,1.477,1.4771,1.4771,1.4842,1.4844,1.4846,1.4849,0,0,1.4853,1.4854,0,0,0,0,0,0,0,0,1.4601,1.4608,1.4676,1.468,1.4684,1.4736,1.4712,1.4764,1.477,1.4738,1.4771,1.4772,1.4807,1.4812,1.4824,1.4853,1.4856,1.4854,1.4855,1.4856,1.4857,0,0,0,0,0,0,0,1.4597,1.4605,1.4676,1.4677,1.4682,1.4693,1.4701,1.4722,1.4768,1.4741,1.4744,1.4752,1.4809,1.4822,1.4826,1.4857,1.4854,1.4856,1.4857,1.4858,1.4888,1.4888,0,0,0,0,0,0,1.4589,1.4602,1.4673,1.4678,1.4643,1.4694,1.4704,1.4719,1.4768,1.4776,1.4752,1.4754,1.4817,1.4823,1.4829,1.4834,1.4856,1.4858,1.486,1.4889,1.4888,1.4888,0,0,0,0,0,0,1.4586,1.4595,1.4671,1.4641,1.4651,1.4696,1.4712,1.472,1.4733,1.4776,1.4785,1.4756,1.4818,1.4826,1.4843,1.4837,1.4859,1.4861,1.489,1.4889,1.4888,1.4844,0,0,0,0,0,0,1.4583,1.4593,1.4596,1.464,1.4653,1.4685,1.4712,1.4721,1.4737,1.4741,1.4783,1.4791,1.4819,1.4839,1.4846,1.4841,1.4863,1.4891,1.4889,1.4888,1.4847,1.4842,1.4838,0,0,0,0,0,1.458,1.4581,1.4596,1.4604,1.4657,1.4684,1.4691,1.4724,1.4736,1.4738,1.4766,1.4789,1.4837,1.4841,1.4848,1.4844,1.4891,1.489,1.4888,1.4848,1.4843,1.4838,0,0,0,0,0,0,1.4536,1.4588,1.4605,1.4621,1.4648,1.4692,1.4697,1.4718,1.4742,1.4744,1.4784,1.4793,1.4806,1.4827,1.4831,1.4848,1.4867,1.4867,1.4834,1.4829,1.4825,1.4819,1.4865,0,0,0,0,0,1.4528,1.4546,1.4591,1.4601,1.4613,1.4652,1.4665,1.4688,1.4717,1.4729,1.4758,1.4785,1.4806,1.4819,1.4841,1.485,1.4858,1.485,1.4846,1.4842,1.4842,1.4845,1.4842,1.4883,1.4883,1.4883,0,0,1.4512,1.4542,1.4552,1.4592,1.4616,1.4632,1.4661,1.4679,1.4691,1.4732,1.475,1.4772,1.4804,1.4817,1.4824,1.4835,1.4832,1.4841,1.4838,1.4839,1.4844,1.484,1.4836,1.4882,1.4883,1.4883,0,0,1.4491,1.4517,1.4527,1.4549,1.4584,1.4609,1.4611,1.4652,1.4668,1.4687,1.4717,1.4732,1.4768,1.4789,1.4804,1.4787,1.4809,1.4793,1.4772,1.4775,1.4771,1.4769,1.476,1.4757,1.4793,1.4793,1.4793,0,1.4466,1.4494,1.4529,1.4544,1.4559,1.4596,1.4605,1.4625,1.4665,1.4674,1.4686,1.4729,1.4754,1.4771,1.4767,1.4779,1.4781,1.4789,1.4769,1.4767,1.4765,1.4757,1.4754,1.479,1.4791,1.4791,1.4791,0,1.4461,1.4479,1.4482,1.4519,1.4535,1.4547,1.4583,1.4595,1.4616,1.4639,1.4656,1.4687,1.4714,1.472,1.4741,1.4739,1.4744,1.4762,1.4781,1.4758,1.4751,1.4749,1.4787,1.4788,1.4789,1.4789,0,0,1.4416,1.4469,1.447,1.4486,1.4525,1.454,1.4552,1.4578,1.4587,1.4612,1.4622,1.465,1.4666,1.4683,1.4707,1.471,1.4691,1.4727,1.4728,1.4717,1.4688,1.4673,1.4669,1.4706,1.4706,1.4706,1.4684,0,1.44,1.4424,1.4455,1.4468,1.4484,1.4517,1.4528,1.4552,1.4574,1.459,1.4614,1.4632,1.4653,1.4663,1.4667,1.4693,1.4686,1.4695,1.4714,1.4714,1.4703,1.4667,1.4652,1.4631,1.4682,1.4682,1.4682,0,1.4385,1.4407,1.4422,1.4457,1.4465,1.4474,1.4498,1.4514,1.4541,1.4557,1.4574,1.4599,1.4612,1.463,1.4647,1.4652,1.4661,1.4675,1.4675,1.4677,1.4696,1.4666,1.4625,1.4621,1.4679,1.4679,1.4679,0,1.4347,1.4382,1.4394,1.4407,1.4449,1.4454,1.4471,1.45,1.4512,1.4534,1.4542,1.4565,1.4577,1.4594,1.4623,1.4634,1.4636,1.4657,1.4647,1.4646,1.4646,1.4645,1.4604,1.4654,1.4654,1.4654,1.4654,0,1.4326,1.4333,1.4377,1.4385,1.4393,1.4427,1.4434,1.4455,1.4479,1.449,1.452,1.453,1.4569,1.4582,1.4605,1.4614,1.462,1.4632,1.4637,1.4628,1.4626,1.4634,1.4635,1.4654,1.4654,1.4654,1.4654,0,1.4286,1.4316,1.4332,1.4369,1.4379,1.4383,1.4414,1.4422,1.4445,1.4458,1.4463,1.4498,1.4516,1.4546,1.4573,1.4588,1.4591,1.4603,1.4582,1.4585,1.4573,1.4573,1.4534,1.453,1.4585,1.4584,1.4584,0,1.427,1.4276,1.4313,1.4322,1.4338,1.4353,1.4366,1.4399,1.441,1.444,1.4443,1.4463,1.448,1.4505,1.4533,1.4552,1.4563,1.4548,1.4566,1.4555,1.456,1.4559,1.4558,1.4543,1.4543,1.4542,1.4542,0,1.4236,1.425,1.4267,1.4288,1.4302,1.4321,1.4341,1.4346,1.4384,1.4395,1.4412,1.4425,1.4451,1.4468,1.4491,1.4509,1.453,1.4536,1.4534,1.4524,1.451,1.4515,1.4569,1.4536,1.4537,1.4537,1.4538,1.4538,1.4207,1.4212,1.4238,1.4255,1.4273,1.429,1.4298,1.4321,1.4336,1.4359,1.4377,1.4392,1.4417,1.445,1.4465,1.4477,1.4487,1.4486,1.4485,1.4483,1.4478,1.451,1.4481,1.4481,1.4482,1.4482,1.4482,0,1.4173,1.4191,1.4206,1.4232,1.4244,1.4264,1.4286,1.4295,1.4307,1.4328,1.4344,1.4362,1.4379,1.4406,1.4425,1.4429,1.4439,1.4432,1.4431,1.4434,1.4469,1.4468,1.4423,1.4423,1.4423,1.4423,1.4423,1.4423,1.4157,1.4167,1.4183,1.42,1.4218,1.4232,1.4243,1.4258,1.4274,1.4293,1.4307,1.4325,1.4348,1.4368,1.4383,1.4391,1.4395,1.4385,1.4395,1.4427,1.4432,1.4438,1.4436,1.4386,1.4386,1.4359,1.4359,1.4359]}]]